Paducah, KY

10:51 PM CDT on May 29, 2017 (GMT -0500)
Barkley Regional

Weather History for KPAH - February, 2014

Change the Weather History Date:

Monday, February 10, 2014

  Actual Average Record
Temperature  
Mean Temperature 18 °F 38 °F  
Max Temperature 24 °F 47 °F 73 °F (1999)
Min Temperature 11 °F 28 °F -4 °F (2011)
Degree Days  
Heating Degree Days 47 27  
Month to date heating degree days 393 282  
Since 1 July heating degree days 3130 2855  
Cooling Degree Days 0 0  
Month to date cooling degree days 0 0  
Year to date cooling degree days 0 0  
Moisture  
Dew Point 11 °F    
Average Humidity 69    
Maximum Humidity 88    
Minimum Humidity 50    
Precipitation  
Precipitation 0.01 in 0.14 in 1.32 in (1985)
Month to date precipitation 2.17 1.41  
Year to date precipitation 4.20 5.09  
Snow  
Snow T in 0.20 in 2.90 in (1986)
Month to date snowfall 6.6 1.3  
Since 1 July snowfall 12.9 6.6  
Snow Depth 4.00 in    
Sea Level Pressure  
Sea Level Pressure 30.38 in    
Wind  
Wind Speed 11 mph (NNE)    
Max Wind Speed 17 mph    
Max Gust Speed 22 mph    
Visibility 8 miles    
Events Snow    
T = Trace of Precipitation, MM = Missing Value Source: NWS Daily Summary

Daily Weather History Graph

Daily Weather History Graph

Search for Another Location

Airport or City:

Trip Planner

Search our weather history database for the weather conditions in past years. The results will help you decide how hot, cold, wet, or windy it might be!

Date:

Astronomy

Feb. 10, 2014 Rise Set
Actual Time 6:49 AM CST 5:29 PM CST
Civil Twilight 6:22 AM CST 5:56 PM CST
Nautical Twilight 5:51 AM CST 6:27 PM CST
Astronomical Twilight 5:21 AM CST 6:57 PM CST
Moon 2:01 PM CST (2/10) 3:39 AM CST (2/10)
Length of Visible Light 11h 34m
Length of Day
10h 40m
Waxing Gibbous, 85% of the Moon is Illuminated
Feb 10
Waxing Gibbous
Feb 14
Full
Feb 22
Last Quarter
Mar 1
New
Mar 8
First Quarter

Hourly Weather History & Observations

Time (CST) Temp. Windchill Dew Point Humidity Pressure Visibility Wind Dir Wind Speed Gust Speed Precip Events Conditions
12:53 AM 23.0 °F 13.1 °F 19.0 °F 85% 30.29 in 7.0 mi NNE 9.2 mph - N/A   Mostly Cloudy
1:00 AM 23.0 °F 12.4 °F 19.0 °F 85% 30.28 in 7.0 mi North 10.4 mph - N/A   Scattered Clouds
1:20 AM 23.0 °F 12.4 °F 18.0 °F 81% 30.30 in 7.0 mi NNE 10.4 mph - N/A   Mostly Cloudy
1:44 AM 23.0 °F 13.1 °F 19.0 °F 85% 30.31 in 7.0 mi NNE 9.2 mph - N/A   Overcast
1:53 AM 23.0 °F 11.7 °F 19.0 °F 85% 30.31 in 7.0 mi North 11.5 mph - N/A   Overcast
2:46 AM 21.9 °F 9.2 °F 16.0 °F 78% 30.30 in 9.0 mi NNE 13.8 mph - N/A   Mostly Cloudy
2:53 AM 21.9 °F 8.7 °F 15.1 °F 75% 30.31 in 9.0 mi NNE 15.0 mph - N/A   Mostly Cloudy
3:11 AM 21.0 °F 8.6 °F 14.0 °F 74% 30.29 in 10.0 mi NNE 12.7 mph - N/A   Partly Cloudy
3:53 AM 19.9 °F 7.9 °F 12.0 °F 71% 30.33 in 10.0 mi NNE 11.5 mph - N/A   Clear
4:53 AM 19.9 °F 7.3 °F 10.9 °F 68% 30.35 in 10.0 mi North 12.7 mph - N/A   Clear
5:53 AM 19.9 °F 7.3 °F 10.9 °F 68% 30.34 in 10.0 mi NNE 12.7 mph - N/A   Partly Cloudy
6:53 AM 19.9 °F 7.9 °F 12.0 °F 71% 30.38 in 10.0 mi NNE 11.5 mph - N/A   Overcast
7:22 AM 19.9 °F 8.6 °F 12.9 °F 74% 30.38 in 2.0 mi North 10.4 mph - 0.00 in Snow Light Snow
7:39 AM 19.9 °F 8.6 °F 14.0 °F 78% 30.38 in 1.2 mi NNE 10.4 mph - 0.00 in Snow Light Snow
7:53 AM 19.9 °F 9.3 °F 14.0 °F 78% 30.39 in 1.2 mi NNE 9.2 mph - 0.01 in Snow Light Snow
8:13 AM 19.9 °F 8.6 °F 14.0 °F 78% 30.38 in 2.0 mi NNE 10.4 mph - 0.00 in Snow Light Snow
8:24 AM 19.9 °F 7.3 °F 12.9 °F 74% 30.38 in 4.0 mi NNE 12.7 mph - 0.00 in Snow Light Snow
8:53 AM 19.9 °F 7.9 °F 12.9 °F 74% 30.40 in 4.0 mi NNE 11.5 mph - 0.00 in Snow Light Snow
9:02 AM 19.9 °F 8.6 °F 12.9 °F 74% 30.40 in 1.8 mi NNE 10.4 mph - 0.00 in Snow Light Snow
9:15 AM 19.9 °F 9.3 °F 12.9 °F 74% 30.40 in 3.0 mi NNE 9.2 mph - 0.00 in Snow Light Snow
9:53 AM 19.9 °F 7.9 °F 12.0 °F 71% 30.43 in 8.0 mi NNE 11.5 mph - 0.00 in   Overcast
10:53 AM 19.9 °F 8.6 °F 10.9 °F 68% 30.42 in 9.0 mi North 10.4 mph - N/A   Overcast
11:53 AM 21.0 °F 10.6 °F 10.9 °F 65% 30.40 in 10.0 mi North 9.2 mph - N/A   Partly Cloudy
12:53 PM 23.0 °F 13.9 °F 10.0 °F 58% 30.39 in 10.0 mi NNE 8.1 mph - N/A   Partly Cloudy
1:53 PM 23.0 °F 10.6 °F 9.0 °F 55% 30.37 in 10.0 mi NNE 13.8 mph - N/A   Clear
2:53 PM 24.1 °F 14.4 °F 9.0 °F 53% 30.38 in 10.0 mi NNE 9.2 mph - N/A   Clear
3:53 PM 23.0 °F 11.7 °F 9.0 °F 55% 30.38 in 10.0 mi North 11.5 mph - N/A   Clear
4:53 PM 21.9 °F 9.8 °F 9.0 °F 58% 30.39 in 10.0 mi NE 12.7 mph - N/A   Clear
5:53 PM 19.9 °F 7.9 °F 8.1 °F 60% 30.41 in 10.0 mi NE 11.5 mph - N/A   Clear
6:53 PM 17.1 °F 4.3 °F 6.1 °F 62% 30.42 in 10.0 mi NE 11.5 mph - N/A   Clear
7:53 PM 15.1 °F 0.5 °F 3.0 °F 59% 30.45 in 10.0 mi NNE 13.8 mph - N/A   Clear
8:53 PM 12.9 °F -0.9 °F 1.9 °F 62% 30.46 in 10.0 mi NNE 11.5 mph - N/A   Clear
9:53 PM 12.9 °F -0.9 °F 1.9 °F 62% 30.44 in 10.0 mi NNE 11.5 mph - N/A   Clear
10:53 PM 10.9 °F -0.8 °F 1.9 °F 67% 30.46 in 10.0 mi NNE 8.1 mph - N/A   Clear
11:53 PM 10.9 °F -3.4 °F 1.0 °F 64% 30.44 in 10.0 mi NNE 11.5 mph - N/A   Clear